Content
SEND FEEDBACK

Daily
Averages
Monthly
Summary
United States of America

POTTS JUNCTION, GUAM


Home > North America > United States > Guam
Elevation: 360 feet     Latitude: 13 33N     Longitude: 144 50E

WEATHER
 
SELECT A DAY
Number of Records: 209,133;   Date Range: 1/1/95 - 8/28/14
 
SHARE

PRINT THIS DATA

[ ← Previous Day ]
WEATHER ALMANAC - JANUARY 26, 2013
[ Next Day → ]
[ °C ]   °F
Weather ElementAverageHighLow
Temperature78.6 °F84.9 °F (1:54 pm)73.9 °F (3:54 am)
Dewpoint66.8 °F70 °F (1:54 am)62.1 °F (4:54 pm)
Humidity68.2 %87 % (3:54 am)49 % (1:54 pm)
Barometer29.90 in29.95 in (8:54 am)29.84 in (2:54 pm)
Wind Speed11.8 mph19.6 mph (11:54 am)
Wind Gust24.2 mph (4:54 pm)
Weather ElementAverage
Visibility10 mi
Wind DirectionNNE (39.1 °)

Weather ElementTotal
Precipitation---
Cooling Degree Days14.4 (Base 65)
Growing Degree Days29.4 (Base 50)
Averaged from 23 records on January 26, 2013
WEATHER CONDITIONS BREAKOUT
WIND DIRECTION BREAKOUT
WEATHER BY HOUR - JANUARY 26, 2013
[ °C ]   °F
Local TimeTemperatureDewpointHumidityBarometerVisibilityWind DirectionWind SpeedGust SpeedPrecipitationEventsConditions
1:54 AM75.9 °F70.0 °F82 %29.90 in10.0 miNNE (30°)8.1 mphMostly Cloudy
2:54 AM75.0 °F70.0 °F84 %29.88 in10.0 miNE (50°)6.9 mphPartly Cloudy
3:54 AM73.9 °F70.0 °F87 %29.88 in10.0 miNE (40°)8.1 mphPartly Cloudy
4:54 AM75.0 °F69.1 °F82 %29.88 in10.0 miNNE (30°)9.2 mphPartly Cloudy
5:54 AM75.0 °F69.1 °F82 %29.90 in10.0 miNE (40°)8.1 mphPartly Cloudy
6:54 AM73.9 °F69.1 °F85 %29.91 in10.0 miNNE (20°)8.1 mphClear
7:54 AM77.0 °F69.1 °F76 %29.93 in10.0 miNNE (30°)10.4 mphClear
8:54 AM80.1 °F69.1 °F69 %29.95 in10.0 miNNE (30°)18.4 mph23.0 mphClear
9:54 AM81.0 °F68.0 °F65 %29.95 in10.0 miNNE (30°)17.3 mphScattered Clouds
10:54 AM82.9 °F66.9 °F58 %29.93 in10.0 miNNE (30°)17.3 mph23.0 mphMostly Cloudy
11:54 AM82.9 °F66.0 °F56 %29.91 in10.0 miNE (50°)19.6 mphMostly Cloudy
12:54 PM84.0 °F64.0 °F51 %29.88 in10.0 miNE (40°)16.1 mphScattered Clouds
1:54 PM84.9 °F64.0 °F49 %29.86 in10.0 miNE (40°)18.4 mph23.0 mphClear
2:54 PM84.0 °F64.0 °F51 %29.84 in10.0 miNNE (20°)15.0 mph20.7 mphClear
3:54 PM84.0 °F64.0 °F51 %29.84 in10.0 miNNE (30°)12.7 mph21.9 mphPartly Cloudy
4:54 PM82.0 °F62.1 °F51 %29.86 in10.0 miNE (40°)17.3 mph24.2 mphPartly Cloudy
5:54 PM80.1 °F63.0 °F56 %29.87 in10.0 miNNE (30°)16.1 mph23.0 mphPartly Cloudy
6:54 PM77.0 °F64.9 °F66 %29.88 in10.0 miNE (50°)10.4 mphPartly Cloudy
7:54 PM75.9 °F64.9 °F69 %29.90 in10.0 miNE (50°)6.9 mphPartly Cloudy
8:54 PM75.9 °F66.0 °F71 %29.92 in10.0 miNE (50°)5.8 mphPartly Cloudy
9:54 PM75.9 °F68.0 °F76 %29.93 in10.0 miENE (60°)5.8 mphPartly Cloudy
10:54 PM75.9 °F68.0 °F76 %29.93 in10.0 miENE (60°)8.1 mphPartly Cloudy
11:54 PM75.9 °F68.0 °F76 %29.93 in10.0 miNE (50°)8.1 mphPartly Cloudy
Hourly data recorded from PGUM, located miles away from Potts Junction, Guam







STORIES FROM OUR PARTNERS